Ketchikan, AK

4:16 PM AKDT on May 25, 2018 (GMT -0800)
Ketchikan International

Weather History for PAKT - April, 2018

Change the Weather History Date:

Monday, April 2, 2018

  Actual Average Record
Temperature  
Mean Temperature 36 °F 40 °F  
Max Temperature 41 °F 47 °F 67 °F (1987)
Min Temperature 30 °F 34 °F 22 °F (1972)
Degree Days  
Heating Degree Days 29 25  
Month to date heating degree days 55 50  
Moisture  
Dew Point 31 °F    
Average Humidity 84    
Maximum Humidity 100    
Minimum Humidity 67    
Precipitation  
Precipitation 0.11 in 0.35 in 2.66 in (1992)
Month to date precipitation 0.11 0.69  
Year to date precipitation 27.06 37.51  
Sea Level Pressure  
Sea Level Pressure 29.88 in    
Wind  
Wind Speed 4 mph (SE)    
Max Wind Speed 15 mph    
Max Gust Speed 20 mph    
Visibility 9 miles    
Events Snow    
T = Trace of Precipitation, MM = Missing Value Source: NWS Daily Summary

Daily Weather History Graph

Daily Weather History Graph

Search for Another Location

Airport or City:

Astronomy

Apr. 02, 2018 Rise Set
Actual Time 6:15 AM AKDT 7:26 PM AKDT
Civil Twilight 5:37 AM AKDT 8:04 PM AKDT
Nautical Twilight 4:51 AM AKDT 8:50 PM AKDT
Astronomical Twilight 4:01 AM AKDT 9:41 PM AKDT
Moon 10:18 PM AKDT (4/2) 7:37 AM AKDT (4/2)
Length of Visible Light 14h 26m
Length of Day
13h 11m
Waning Gibbous, 94% of the Moon is Illuminated
Apr 2
Waning Gibbous
Apr 7
Last Quarter
Apr 15
New
Apr 22
First Quarter
Apr 29
Full

Hourly Weather History & Observations

Time (AKDT) Temp. Windchill Dew Point Humidity Pressure Visibility Wind Dir Wind Speed Gust Speed Precip Events Conditions
12:53 AM 30.9 °F - 25.0 °F 79% 29.98 in 10.0 mi Calm Calm - N/A   Clear
1:53 AM 32.0 °F - 26.1 °F 79% 29.97 in 10.0 mi Calm Calm - N/A   Partly Cloudy
2:53 AM 32.0 °F - 26.1 °F 79% 29.95 in 10.0 mi Calm Calm - N/A   Overcast
3:53 AM 33.1 °F 27.7 °F 26.1 °F 75% 29.94 in 10.0 mi SSE 5.8 mph - N/A   Scattered Clouds
4:53 AM 33.1 °F 28.7 °F 26.1 °F 75% 29.93 in 10.0 mi SSE 4.6 mph - N/A   Mostly Cloudy
5:53 AM 34.0 °F 29.8 °F 28.0 °F 79% 29.92 in 10.0 mi SE 4.6 mph - N/A   Overcast
6:03 AM 34.0 °F 31.0 °F 27.0 °F 75% 29.92 in 10.0 mi SE 3.5 mph - N/A   Overcast
6:53 AM 34.0 °F 31.0 °F 28.0 °F 79% 29.92 in 10.0 mi SE 3.5 mph - N/A   Overcast
7:53 AM 37.0 °F - 27.0 °F 67% 29.91 in 10.0 mi Calm Calm - N/A   Overcast
8:53 AM 37.4 °F - 28.4 °F 70% 29.91 in 10.0 mi Calm Calm - N/A   Overcast
9:53 AM 37.4 °F - 28.4 °F 70% 29.91 in 10.0 mi Calm Calm - N/A   Overcast
10:53 AM 37.0 °F - 30.9 °F 79% 29.91 in 10.0 mi Calm Calm - 0.00 in Snow Light Snow
11:53 AM 39.2 °F 32.0 °F 30.2 °F 70% 29.90 in 10.0 mi SSE 11.5 mph - N/A   Overcast
12:53 PM 39.2 °F 32.0 °F 30.2 °F 70% 29.90 in 10.0 mi SE 11.5 mph - N/A   Mostly Cloudy
1:53 PM 39.2 °F 32.5 °F 32.0 °F 75% 29.90 in 10.0 mi SSE 10.4 mph - N/A   Mostly Cloudy
2:35 PM 35.6 °F 26.6 °F 32.0 °F 87% 29.90 in 3.0 mi SE 13.8 mph - N/A   Overcast
2:53 PM 33.8 °F 29.6 °F 33.8 °F 100% 29.91 in 1.0 mi ESE 4.6 mph - N/A Snow Light Snow
3:08 PM 33.8 °F - 33.8 °F 100% 29.89 in 3.0 mi Calm Calm - N/A Snow Light Snow
3:53 PM 35.6 °F - 33.8 °F 93% 29.89 in 10.0 mi Calm Calm - N/A   Overcast
4:00 PM 36.0 °F 33.3 °F 33.1 °F 89% 29.88 in 9.0 mi ENE 3.5 mph - N/A   Overcast
4:07 PM 36.0 °F 32.1 °F 33.1 °F 89% 29.88 in 10.0 mi Variable 4.6 mph - 0.00 in Snow Light Snow
4:53 PM 37.0 °F 31.6 °F 33.1 °F 86% 29.88 in 10.0 mi SE 6.9 mph - 0.00 in   Overcast
5:53 PM 37.0 °F 31.0 °F 33.1 °F 86% 29.86 in 10.0 mi SE 8.1 mph - N/A   Overcast
6:53 PM 35.6 °F 30.7 °F 33.8 °F 93% 29.84 in 10.0 mi SSE 5.8 mph - N/A   Overcast
7:53 PM 36.0 °F 32.1 °F 33.1 °F 89% 29.84 in 10.0 mi SSE 4.6 mph - N/A   Overcast
8:53 PM 35.1 °F 32.2 °F 33.1 °F 92% 29.84 in 10.0 mi South 3.5 mph - N/A   Overcast
9:18 PM 35.1 °F 31.0 °F 33.1 °F 92% 29.83 in 10.0 mi SSE 4.6 mph - N/A   Overcast
9:53 PM 35.1 °F - 33.1 °F 92% 29.83 in 10.0 mi Calm Calm - N/A   Overcast
10:10 PM 35.1 °F - 33.1 °F 92% 29.82 in 10.0 mi Calm Calm - N/A   Overcast
10:53 PM 36.0 °F - 33.1 °F 89% 29.82 in 10.0 mi Calm Calm - N/A   Overcast
11:02 PM 36.0 °F - 33.1 °F 89% 29.81 in 10.0 mi Calm Calm - N/A   Overcast
11:35 PM 35.1 °F - 33.1 °F 92% 29.80 in 2.5 mi Calm Calm - 0.01 in Snow Light Snow
11:48 PM 35.6 °F - 33.8 °F 93% 29.80 in 5.0 mi Calm Calm - 0.01 in Snow Light Snow
11:53 PM 34.0 °F - 33.1 °F 96% 29.81 in 7.0 mi Calm Calm - 0.01 in Snow Light Snow